Location: Darmstadt
(49.8706°N, 8.6494°E)
Time: 05:09:14
(UTC+01:00)

Cosmos 1980 Rocket - Pass Details

Date: 31 October 2020
Orbit: 830 x 848 km, 71.0° (Epoch: 03 December)

Event Time Altitude Azimuth Distance (km) Brightness Sun altitude
Rises 17:59:39 0° 165° (SSE) 3,375 5.3 -9.5°
Reaches altitude 10° 18:02:34 10° 151° (SSE) 2,443 4.4 -10.0°
Maximum altitude 18:06:47 22° 102° (ESE) 1,734 3.3 -10.6°
Enters shadow 18:10:35 12° 56° (NE) 2,330 3.9 -11.2°
